Project,Study,Ord_Occ,Event_Num,Cast_ID,Date_Time_UTC,Date_Time_PST,Lat_Dec,Lon_Dec,Sta_ID,Line,Sta,Depth,Pressure,PrQ,Temp1,Temp1Q,Temp2,Temp2Q,TempAve,Salt1,Salt1Q,Salt1_Corr,Salt2,Salt2Q,Salt2_Corr,SaltAve_Corr,Ox1,Ox1Q,Ox1_CruiseCorr,Ox1_StaCorr,Ox2,Ox2Q,Ox2_CruiseCorr,Ox2_StaCorr,OxAve_StaCorr,Ox1uM,Ox1uM_CruiseCorr,Ox1uM_StaCorr,Ox2uM,Ox2uM_CruiseCorr,Ox2uM_StaCorr,OxAveuM_StaCorr,FluorV,FluorQ,EstChl_CruiseCorr,EstChl_StaCorr,ISUSV,ISUSQ,EstNO3_CruiseCorr,EstNO3_StaCorr,SigThetaTS1,SigThetaTS1Q,SigThetaTS2,SigThetaTS2Q,BAT,XMiss,TransQ,pH,pHQ,SPAR,SPARQ,PAR,PARQ,PoT1,PoT2,DynHt,SVA,OxSat1,OxSat2,BTL_Depth,BTL_Temp,SaltB,OxB,OxBuM,Chl-a,Phaeo,NO3,NO2,NH4,PO4,SIL
CalCOFI,2101RL,043,,2101_043d,25-Jan-2021 03:33:04,24-Jan-2021 19:33:04,34.27164,-120.03024,081.8 046.9,081.8,046.9,3.000,3.022,,13.7130,,13.7113,,13.7122,33.5106,,33.5164,33.5076,,33.5096,33.5130,5.5495,,5.8080,,5.4367,,5.7723,,,241.774,253.3492,0.0000,236.858,269.3089,,0.0000,0.2208,,1.5611,2.0700, ,, , ,25.0955,,25.0936,,0.9608,78.6465,,,,3.8487E+00,,1.0000E-12,,13.7125,13.7109,-0.0023,285.766,94.125,92.206,3,,33.5039,, ,2.096,0.482,,,,,
CalCOFI,2101RL,043,,2101_043d,25-Jan-2021 03:33:35,24-Jan-2021 19:33:35,34.27169,-120.03034,081.8 046.9,081.8,046.9,4.000,4.029,,13.7166,,13.7188,,13.7177,33.5107,,33.5165,33.5078,,33.5098,33.5132,5.5419,,5.8001,,5.4392,,5.7750,,,241.444,253.0038,0.0000,236.971,268.9419,,0.0000,0.2355,,1.6815,2.2744, ,, , ,25.0949,,25.0922,,0.9565,78.7315,,,,3.3510E+00,,1.0000E-12,,13.7161,13.7183,0.0045,285.856,94.004,92.264,,,,,,,,,,,,
CalCOFI,2101RL,043,,2101_043d,25-Jan-2021 03:33:38,24-Jan-2021 19:33:38,34.27170,-120.03034,081.8 046.9,081.8,046.9,5.000,5.036,,13.7198,,13.7201,,13.7200,33.5107,,33.5165,33.5078,,33.5098,33.5132,5.5408,,5.7989,,5.4633,,5.8006,,,241.395,252.9525,0.0000,238.019,268.8874,,0.0000,0.2291,,1.6291,2.1846, ,, , ,25.0943,,25.0920,,0.9608,78.6471,,,,3.7026E+00,,1.0000E-12,,13.7191,13.7194,0.0081,285.943,93.991,92.675,,,,,,,,,,,,
CalCOFI,2101RL,043,,2101_043d,25-Jan-2021 03:33:38,24-Jan-2021 19:33:38,34.27170,-120.03034,081.8 046.9,081.8,046.9,6.000,6.043,,13.7197,,13.7195,,13.7196,33.5107,,33.5165,33.5079,,33.5099,33.5132,5.5380,,5.7960,,5.4662,,5.8037,,,241.274,252.8258,0.0000,238.147,268.7529,,0.0000,0.2278,,1.6184,2.1665, ,, , ,25.0943,,25.0922,,0.9591,78.6803,,,,3.6947E+00,,1.0000E-12,,13.7188,13.7187,0.0109,285.963,93.943,92.724,,,,,,,,,,,,
CalCOFI,2101RL,043,,2101_043d,25-Jan-2021 03:33:39,24-Jan-2021 19:33:39,34.27170,-120.03034,081.8 046.9,081.8,046.9,7.000,7.051,,13.7188,,13.7194,,13.7191,33.5108,,33.5166,33.5079,,33.5099,33.5133,5.5372,,5.7951,,5.4690,,5.8066,,,241.236,252.7860,0.0000,238.265,268.7106,,0.0000,0.2212,,1.5643,2.0755, ,, , ,25.0946,,25.0923,,0.9585,78.6930,,,,3.6947E+00,,1.0000E-12,,13.7178,13.7184,0.0138,285.969,93.927,92.770,,,,,,,,,,,,
CalCOFI,2101RL,043,,2101_043d,25-Jan-2021 03:33:41,24-Jan-2021 19:33:41,34.27170,-120.03035,081.8 046.9,081.8,046.9,8.000,8.058,,13.7190,,13.7185,,13.7188,33.5106,,33.5164,33.5078,,33.5098,33.5131,5.5296,,5.7872,,5.4730,,5.8109,,,240.908,252.4427,0.0000,238.441,268.3459,,0.0000,0.2206,,1.5594,2.0672, ,, , ,25.0944,,25.0924,,0.9594,78.6743,,,,3.6947E+00,,1.0000E-12,,13.7178,13.7173,0.0166,286.012,93.799,92.836,,,,,,,,,,,,
CalCOFI,2101RL,043,,2101_043d,25-Jan-2021 03:33:42,24-Jan-2021 19:33:42,34.27170,-120.03036,081.8 046.9,081.8,046.9,9.000,9.065,,13.7163,,13.7164,,13.7164,33.5105,,33.5163,33.5078,,33.5098,33.5131,5.5397,,5.7978,,5.4687,,5.8063,,,241.345,252.9001,0.0000,238.254,268.8318,,0.0000,0.2258,,1.6020,2.1388, ,, , ,25.0950,,25.0928,,0.9596,78.6716,,,,3.6947E+00,,1.0000E-12,,13.7150,13.7151,0.0195,285.986,93.964,92.759,,,,,,,,,,,,
CalCOFI,2101RL,043,,2101_043d,25-Jan-2021 03:33:43,24-Jan-2021 19:33:43,34.27170,-120.03036,081.8 046.9,081.8,046.9,10.000,10.072,,13.7142,,13.7141,,13.7142,33.5107,,33.5165,33.5078,,33.5098,33.5132,5.5520,,5.8106,,5.4718,,5.8096,,,241.881,253.4612,0.0000,238.389,269.4279,,0.0000,0.2280,,1.6201,2.1693, ,, , ,25.0956,,25.0934,,0.9586,78.6900,,,,3.6947E+00,,1.0000E-12,,13.7128,13.7127,0.0224,285.957,94.170,92.808,10,,33.5065,, ,2.085,0.526,,,,,
CalCOFI,2101RL,043,,2101_043d,25-Jan-2021 03:33:45,24-Jan-2021 19:33:45,34.27168,-120.03038,081.8 046.9,081.8,046.9,11.000,11.080,,13.7141,,13.7141,,13.7141,33.5107,,33.5165,33.5079,,33.5099,33.5132,5.5556,,5.8144,,5.4687,,5.8063,,,242.039,253.6266,0.0000,238.252,269.6036,,0.0000,0.2326,,1.6577,2.2336, ,, , ,25.0956,,25.0934,,0.9579,78.7047,,,,3.6947E+00,,1.0000E-12,,13.7126,13.7126,0.0253,285.986,94.231,92.755,,,,,,,,,,,,
CalCOFI,2101RL,043,,2101_043d,25-Jan-2021 03:33:46,24-Jan-2021 19:33:46,34.27168,-120.03038,081.8 046.9,081.8,046.9,12.000,12.087,,13.7174,,13.7176,,13.7175,33.5106,,33.5164,33.5078,,33.5098,33.5131,5.5484,,5.8069,,5.4760,,5.8141,,,241.724,253.2969,0.0000,238.573,269.2533,,0.0000,0.2378,,1.7004,2.3070, ,, , ,25.0949,,25.0927,,0.9580,78.7025,,,,3.6947E+00,,1.0000E-12,,13.7157,13.7159,0.0282,286.082,94.114,92.886,,,,,,,,,,,,
CalCOFI,2101RL,043,,2101_043d,25-Jan-2021 03:33:48,24-Jan-2021 19:33:48,34.27166,-120.03038,081.8 046.9,081.8,046.9,13.000,13.094,,13.7180,,13.7177,,13.7179,33.5106,,33.5164,33.5079,,33.5099,33.5132,5.5518,,5.8104,,5.4766,,5.8147,,,241.873,253.4529,0.0000,238.599,269.4190,,0.0000,0.2261,,1.6045,2.1430, ,, , ,25.0948,,25.0928,,0.9591,78.6806,,,,3.6947E+00,,1.0000E-12,,13.7161,13.7159,0.0311,286.119,94.173,92.896,,,,,,,,,,,,
CalCOFI,2101RL,043,,2101_043d,25-Jan-2021 03:33:50,24-Jan-2021 19:33:50,34.27166,-120.03038,081.8 046.9,081.8,046.9,14.000,14.101,,13.7177,,13.7180,,13.7179,33.5106,,33.5164,33.5078,,33.5098,33.5131,5.5448,,5.8031,,5.4856,,5.8243,,,241.567,253.1325,0.0000,238.988,269.0787,,0.0000,0.2320,,1.6528,2.2252, ,, , ,25.0949,,25.0926,,0.9585,78.6932,,,,3.6947E+00,,1.0000E-12,,13.7157,13.7161,0.0339,286.137,94.054,93.048,,,,,,,,,,,,
CalCOFI,2101RL,043,,2101_043d,25-Jan-2021 03:33:56,24-Jan-2021 19:33:56,34.27164,-120.03038,081.8 046.9,081.8,046.9,15.000,15.109,,13.7176,,13.7182,,13.7179,33.5107,,33.5165,33.5079,,33.5099,33.5132,5.5411,,5.7992,,5.4787,,5.8169,,,241.407,252.9650,0.0000,238.688,268.9008,,0.0000,0.2274,,1.6151,2.1610, ,, , ,25.0950,,25.0927,,0.9579,78.7032,,,,3.6947E+00,,1.0000E-12,,13.7155,13.7160,0.0373,286.156,93.991,92.932,,,,,,,,,,,,
CalCOFI,2101RL,043,,2101_043d,25-Jan-2021 03:34:06,24-Jan-2021 19:34:06,34.27158,-120.03042,081.8 046.9,081.8,046.9,16.000,16.116,,13.7177,,13.7181,,13.7179,33.5106,,33.5164,33.5079,,33.5099,33.5132,5.5350,,5.7928,,5.4715,,5.8093,,,241.140,252.6856,0.0000,238.374,268.6039,,0.0000,0.2273,,1.6143,2.1596, ,, , ,25.0950,,25.0927,,0.9581,78.6995,,,,3.6947E+00,,1.0000E-12,,13.7154,13.7159,0.0407,286.187,93.887,92.810,,,,,,,,,,,,
CalCOFI,2101RL,043,,2101_043d,25-Jan-2021 03:34:12,24-Jan-2021 19:34:12,34.27157,-120.03046,081.8 046.9,081.8,046.9,17.000,17.123,,13.7178,,13.7192,,13.7185,33.5102,,33.5160,33.5075,,33.5095,33.5128,5.5371,,5.7950,,5.4786,,5.8168,,,241.234,252.7840,0.0000,238.686,268.7084,,0.0000,0.2215,,1.5668,2.0796, ,, , ,25.0947,,25.0923,,0.9577,78.7079,,,,3.6947E+00,,1.0000E-12,,13.7154,13.7168,0.0436,286.246,93.924,92.933,,,,,,,,,,,,
CalCOFI,2101RL,043,,2101_043d,25-Jan-2021 03:34:17,24-Jan-2021 19:34:17,34.27156,-120.03047,081.8 046.9,081.8,046.9,18.000,18.131,,13.7120,,13.7140,,13.7130,33.5097,,33.5155,33.5071,,33.5091,33.5123,5.5341,,5.7919,,5.4753,,5.8133,,,241.102,252.6458,0.0000,238.542,268.5616,,0.0000,0.2228,,1.5774,2.0974, ,, , ,25.0955,,25.0930,,0.9576,78.7094,,,,3.6947E+00,,1.0000E-12,,13.7094,13.7115,0.0465,286.193,93.861,92.867,,,,,,,,,,,,
CalCOFI,2101RL,043,,2101_043d,25-Jan-2021 03:34:22,24-Jan-2021 19:34:22,34.27154,-120.03048,081.8 046.9,081.8,046.9,19.000,19.138,,13.7114,,13.7118,,13.7116,33.5096,,33.5154,33.5069,,33.5089,33.5122,5.5306,,5.7882,,5.4689,,5.8065,,,240.950,252.4867,0.0000,238.263,268.3926,,0.0000,0.2203,,1.5570,2.0631, ,, , ,25.0956,,25.0934,,0.9588,78.6869,,,,3.6947E+00,,1.0000E-12,,13.7087,13.7091,0.0494,286.214,93.801,92.754,,,,,,,,,,,,
CalCOFI,2101RL,043,,2101_043d,25-Jan-2021 03:34:26,24-Jan-2021 19:34:26,34.27154,-120.03051,081.8 046.9,081.8,046.9,20.000,20.145,,13.7103,,13.7123,,13.7113,33.5095,,33.5153,33.5070,,33.5090,33.5122,5.5262,,5.7836,,5.4754,,5.8134,,,240.758,252.2857,0.0000,238.547,268.1791,,0.0000,0.2244,,1.5906,2.1195, ,, , ,25.0958,,25.0934,,0.9589,78.6841,,,,3.6947E+00,,1.0000E-12,,13.7075,13.7095,0.0523,286.225,93.724,92.865,,,,,,,,,,,,
CalCOFI,2101RL,043,,2101_043d,25-Jan-2021 03:34:30,24-Jan-2021 19:34:30,34.27152,-120.03052,081.8 046.9,081.8,046.9,21.000,21.153,,13.7074,,13.7077,,13.7076,33.5094,,33.5152,33.5066,,33.5086,33.5119,5.5210,,5.7782,,5.4706,,5.8083,,,240.533,252.0501,0.0000,238.334,267.9289,,0.0000,0.2250,,1.5955,2.1277, ,, , ,25.0963,,25.0941,,0.9584,78.6951,,,,3.6947E+00,,1.0000E-12,,13.7044,13.7047,0.0551,286.204,93.631,92.774,21,,33.5043,, ,2.190,0.573,,,,,
CalCOFI,2101RL,043,,2101_043d,25-Jan-2021 03:34:33,24-Jan-2021 19:34:33,34.27149,-120.03053,081.8 046.9,081.8,046.9,22.000,22.160,,13.7043,,13.7052,,13.7048,33.5096,,33.5154,33.5068,,33.5088,33.5121,5.5241,,5.7814,,5.4665,,5.8040,,,240.668,252.1915,0.0000,238.155,268.0790,,0.0000,0.2240,,1.5873,2.1139, ,, , ,25.0971,,25.0947,,0.9565,78.7311,,,,3.6947E+00,,1.0000E-12,,13.7012,13.7021,0.0580,286.158,93.677,92.699,,,,,,,,,,,,
CalCOFI,2101RL,043,,2101_043d,25-Jan-2021 03:34:37,24-Jan-2021 19:34:37,34.27148,-120.03057,081.8 046.9,081.8,046.9,23.000,23.167,,13.7062,,13.7063,,13.7063,33.5097,,33.5155,33.5069,,33.5089,33.5122,5.5028,,5.7591,,5.4661,,5.8035,,,239.739,251.2190,0.0000,238.138,267.0459,,0.0000,0.2136,,1.5021,1.9722, ,, , ,25.0968,,25.0947,,0.9563,78.7354,,,,3.6947E+00,,1.0000E-12,,13.7030,13.7030,0.0609,286.212,93.320,92.695,,,,,,,,,,,,
CalCOFI,2101RL,043,,2101_043d,25-Jan-2021 03:34:39,24-Jan-2021 19:34:39,34.27148,-120.03058,081.8 046.9,081.8,046.9,24.000,24.174,,13.6971,,13.6994,,13.6983,33.5098,,33.5156,33.5071,,33.5091,33.5124,5.5174,,5.7744,,5.4392,,5.7750,,,240.373,251.8827,0.0000,236.970,267.7509,,0.0000,0.2225,,1.5750,2.0933, ,, , ,25.0988,,25.0962,,0.9543,78.7748,,,,3.6947E+00,,1.0000E-12,,13.6937,13.6960,0.0638,286.051,93.549,92.227,,,,,,,,,,,,
CalCOFI,2101RL,043,,2101_043d,25-Jan-2021 03:34:42,24-Jan-2021 19:34:42,34.27147,-120.03059,081.8 046.9,081.8,046.9,25.000,25.182,,13.6944,,13.6932,,13.6938,33.5099,,33.5157,33.5071,,33.5091,33.5124,5.4904,,5.7462,,5.4400,,5.7758,,,239.197,250.6516,0.0000,237.004,266.4432,,0.0000,0.2194,,1.5496,2.0508, ,, , ,25.0995,,25.0975,,0.9563,78.7353,,,,3.6947E+00,,1.0000E-12,,13.6909,13.6897,0.0667,286.014,93.087,92.229,,,,,,,,,,,,
CalCOFI,2101RL,043,,2101_043d,25-Jan-2021 03:34:46,24-Jan-2021 19:34:46,34.27145,-120.03061,081.8 046.9,081.8,046.9,26.000,26.189,,13.6773,,13.6770,,13.6772,33.5098,,33.5156,33.5072,,33.5092,33.5124,5.4846,,5.7401,,5.4222,,5.7569,,,238.945,250.3878,0.0000,236.226,266.1630,,0.0000,0.2279,,1.6192,2.1679, ,, , ,25.1029,,25.1010,,0.9507,78.8464,,,,3.6947E+00,,1.0000E-12,,13.6736,13.6733,0.0695,285.717,92.956,91.896,,,,,,,,,,,,
CalCOFI,2101RL,043,,2101_043d,25-Jan-2021 03:34:48,24-Jan-2021 19:34:48,34.27144,-120.03062,081.8 046.9,081.8,046.9,27.000,27.196,,13.6704,,13.6702,,13.6703,33.5100,,33.5158,33.5073,,33.5093,33.5126,5.4427,,5.6962,,5.3889,,5.7216,,,237.117,248.4743,0.0000,234.777,264.1302,,0.0000,0.2305,,1.6405,2.2042, ,, , ,25.1045,,25.1024,,0.9479,78.9014,,,,3.6947E+00,,1.0000E-12,,13.6666,13.6664,0.0724,285.589,92.232,91.320,,,,,,,,,,,,
CalCOFI,2101RL,043,,2101_043d,25-Jan-2021 03:34:50,24-Jan-2021 19:34:50,34.27144,-120.03064,081.8 046.9,081.8,046.9,28.000,28.204,,13.6529,,13.6544,,13.6537,33.5108,,33.5166,33.5081,,33.5101,33.5134,5.4370,,5.6903,,5.3759,,5.7077,,,236.868,248.2136,0.0000,234.209,263.8533,,0.0000,0.2321,,1.6537,2.2266, ,, , ,25.1087,,25.1063,,0.9442,78.9742,,,,3.6947E+00,,1.0000E-12,,13.6490,13.6505,0.0753,285.216,92.104,91.071,,,,,,,,,,,,
CalCOFI,2101RL,043,,2101_043d,25-Jan-2021 03:34:53,24-Jan-2021 19:34:53,34.27144,-120.03064,081.8 046.9,081.8,046.9,29.000,29.211,,13.6493,,13.6456,,13.6475,33.5112,,33.5170,33.5084,,33.5104,33.5137,5.3938,,5.6451,,5.3405,,5.6701,,,234.988,246.2456,0.0000,232.666,261.7627,,0.0000,0.2069,,1.4472,1.8825, ,, , ,25.1098,,25.1084,,0.9367,79.1229,,,,3.6947E+00,,1.0000E-12,,13.6452,13.6416,0.0782,285.140,91.366,90.455,,,,,,,,,,,,
CalCOFI,2101RL,043,,2101_043d,25-Jan-2021 03:34:56,24-Jan-2021 19:34:56,34.27144,-120.03065,081.8 046.9,081.8,046.9,30.000,30.218,,13.6189,,13.6168,,13.6179,33.5137,,33.5195,33.5108,,33.5128,33.5162,5.3164,,5.5640,,5.2731,,5.5986,,,231.611,242.7106,0.0000,229.726,258.0075,,0.0000,0.2303,,1.6389,2.2014, ,, , ,25.1180,,25.1161,,0.9284,79.2868,,,,3.6947E+00,,1.0000E-12,,13.6147,13.6126,0.0810,284.392,90.000,89.261,,,,,,,,,,,,
CalCOFI,2101RL,043,,2101_043d,25-Jan-2021 03:34:58,24-Jan-2021 19:34:58,34.27144,-120.03066,081.8 046.9,081.8,046.9,31.000,31.226,,13.5913,,13.5931,,13.5922,33.5155,,33.5213,33.5126,,33.5146,33.5180,5.2701,,5.5156,,5.2194,,5.5415,,,229.595,240.6002,0.0000,227.385,255.7656,,0.0000,0.2087,,1.4619,1.9065, ,, , ,25.1250,,25.1224,,0.9124,79.6045,,,,3.6947E+00,,1.0000E-12,,13.5870,13.5888,0.0839,283.748,89.168,88.311,,,,,,,,,,,,
CalCOFI,2101RL,043,,2101_043d,25-Jan-2021 03:35:00,24-Jan-2021 19:35:00,34.27144,-120.03068,081.8 046.9,081.8,046.9,32.000,32.233,,13.5692,,13.5710,,13.5701,33.5173,,33.5231,33.5145,,33.5165,33.5198,5.2172,,5.4602,,5.1689,,5.4879,,,227.286,238.1832,0.0000,225.183,253.1980,,0.0000,0.2077,,1.4537,1.8932, ,, , ,25.1309,,25.1283,,0.8997,79.8575,,,,3.6947E+00,,1.0000E-12,,13.5647,13.5666,0.0868,283.211,88.233,87.417,,,,,,,,,,,,
CalCOFI,2101RL,043,,2101_043d,25-Jan-2021 03:35:02,24-Jan-2021 19:35:02,34.27144,-120.03068,081.8 046.9,081.8,046.9,33.000,33.241,,13.5440,,13.5475,,13.5458,33.5194,,33.5252,33.5166,,33.5186,33.5219,5.1040,,5.3417,,5.0609,,5.3732,,,222.354,233.0204,0.0000,220.480,247.7135,,0.0000,0.1993,,1.3849,1.7824, ,, , ,25.1377,,25.1348,,0.8902,80.0473,,,,3.6947E+00,,1.0000E-12,,13.5394,13.5429,0.0896,282.591,86.275,85.552,,,,,,,,,,,,
CalCOFI,2101RL,043,,2101_043d,25-Jan-2021 03:35:04,24-Jan-2021 19:35:04,34.27144,-120.03068,081.8 046.9,081.8,046.9,34.000,34.248,,13.4986,,13.4964,,13.4975,33.5240,,33.5298,33.5215,,33.5235,33.5267,4.9419,,5.1721,,4.9206,,5.2242,,,215.290,225.6258,0.0000,214.365,239.8583,,0.0000,0.1659,,1.1112,1.3626, ,, , ,25.1505,,25.1490,,0.8603,80.6483,,,,3.6947E+00,,1.0000E-12,,13.4939,13.4917,0.0925,281.401,83.460,83.096,,,,,,,,,,,,
CalCOFI,2101RL,043,,2101_043d,25-Jan-2021 03:35:07,24-Jan-2021 19:35:07,34.27144,-120.03070,081.8 046.9,081.8,046.9,35.000,35.255,,13.4156,,13.4194,,13.4175,33.5331,,33.5389,33.5299,,33.5319,33.5354,4.7998,,5.0234,,4.8020,,5.0982,,,209.095,219.1408,0.0000,209.190,232.9693,,0.0000,0.1393,,0.8932,1.0517, ,, , ,25.1744,,25.1711,,0.8267,81.3289,,,,3.6947E+00,,1.0000E-12,,13.4107,13.4145,0.0953,279.154,80.928,80.969,,,,,,,,,,,,
CalCOFI,2101RL,043,,2101_043d,25-Jan-2021 03:35:09,24-Jan-2021 19:35:09,34.27143,-120.03071,081.8 046.9,081.8,046.9,36.000,36.263,,13.3543,,13.3516,,13.3530,33.5378,,33.5436,33.5357,,33.5377,33.5407,4.6212,,4.8364,,4.6290,,4.9145,,,201.310,210.9915,0.0000,201.651,224.3123,,0.0000,0.1141,,0.6867,0.7763, ,, , ,25.1904,,25.1893,,0.8109,81.6498,,,,3.6947E+00,,1.0000E-12,,13.3493,13.3466,0.0981,277.654,77.820,77.947,,,,,,,,,,,,
CalCOFI,2101RL,043,,2101_043d,25-Jan-2021 03:35:11,24-Jan-2021 19:35:11,34.27142,-120.03072,081.8 046.9,081.8,046.9,37.000,37.270,,13.1476,,13.1476,,13.1476,33.5451,,33.5509,33.5431,,33.5451,33.5480,4.5550,,4.7672,,4.5427,,4.8228,,,198.419,207.9652,0.0000,197.883,221.0974,,0.0000,0.0884,,0.4762,0.5147, ,, , ,25.2375,,25.2360,,0.7852,82.1763,,,,3.6947E+00,,1.0000E-12,,13.1425,13.1425,0.1009,273.185,76.384,76.177,,,,,,,,,,,,
CalCOFI,2101RL,043,,2101_043d,25-Jan-2021 03:35:13,24-Jan-2021 19:35:13,34.27141,-120.03075,081.8 046.9,081.8,046.9,38.000,38.278,,13.0821,,13.0823,,13.0822,33.5499,,33.5557,33.5476,,33.5496,33.5527,4.4728,,4.6811,,4.4588,,4.7337,,,194.837,204.2156,0.0000,194.226,217.1142,,0.0000,0.0873,,0.4671,0.5039, ,, , ,25.2543,,25.2525,,0.7796,82.2918,,,,3.6947E+00,,1.0000E-12,,13.0769,13.0771,0.1036,271.615,74.908,74.672,,,,,,,,,,,,
CalCOFI,2101RL,043,,2101_043d,25-Jan-2021 03:35:15,24-Jan-2021 19:35:15,34.27140,-120.03076,081.8 046.9,081.8,046.9,39.000,39.285,,12.9815,,12.9815,,12.9815,33.5552,,33.5610,33.5526,,33.5546,33.5578,4.4526,,4.6600,,4.4126,,4.6846,,,193.948,203.2850,0.0000,192.208,216.1256,,0.0000,0.0844,,0.4434,0.4757, ,, , ,25.2784,,25.2764,,0.7767,82.3512,,,,3.6947E+00,,1.0000E-12,,12.9762,12.9762,0.1063,269.340,74.416,73.747,,,,,,,,,,,,
CalCOFI,2101RL,043,,2101_043d,25-Jan-2021 03:35:16,24-Jan-2021 19:35:16,34.27140,-120.03078,081.8 046.9,081.8,046.9,40.000,40.292,,12.9491,,12.9489,,12.9490,33.5565,,33.5623,33.5539,,33.5559,33.5591,4.4060,,4.6112,,4.3752,,4.6449,,,191.921,201.1631,0.0000,190.577,213.8716,,0.0000,0.0819,,0.4229,0.4516, ,, , ,25.2858,,25.2839,,0.7760,82.3649,,,,3.6947E+00,,1.0000E-12,,12.9437,12.9435,0.1090,268.660,73.590,73.073,,,,,,,,,,,,
CalCOFI,2101RL,043,,2101_043d,25-Jan-2021 03:35:18,24-Jan-2021 19:35:18,34.27140,-120.03078,081.8 046.9,081.8,046.9,41.000,41.300,,12.8939,,12.8951,,12.8945,33.5635,,33.5693,33.5605,,33.5625,33.5659,4.3681,,4.5716,,4.3394,,4.6069,,,190.266,199.4306,0.0000,189.015,212.0312,,0.0000,0.0790,,0.3991,0.4238, ,, , ,25.3022,,25.2996,,0.7742,82.4027,,,,3.6947E+00,,1.0000E-12,,12.8883,12.8896,0.1117,267.128,72.877,72.397,41,,33.5673,, ,,,,,,,
CalCOFI,2101RL,043,,2101_043d,25-Jan-2021 03:35:21,24-Jan-2021 19:35:21,34.27140,-120.03080,081.8 046.9,081.8,046.9,42.000,42.307,,12.7899,,12.8018,,12.7959,33.5724,,33.5782,33.5681,,33.5701,33.5742,4.3524,,4.5551,,4.3083,,4.5738,,,189.576,198.7084,0.0000,187.658,211.2639,,0.0000,0.0713,,0.3360,0.3513, ,, , ,25.3296,,25.3239,,0.7734,82.4189,,,,3.6947E+00,,1.0000E-12,,12.7843,12.7961,0.1144,264.540,72.462,71.744,,,,,,,,,,,,
CalCOFI,2101RL,043,,2101_043d,25-Jan-2021 03:35:22,24-Jan-2021 19:35:22,34.27140,-120.03081,081.8 046.9,081.8,046.9,43.000,43.315,,12.7512,,12.7511,,12.7512,33.5676,,33.5734,33.5650,,33.5670,33.5702,4.3083,,4.5090,,4.2937,,4.5583,,,187.656,196.6985,0.0000,187.021,209.1288,,0.0000,0.0715,,0.3377,0.3532, ,, , ,25.3334,,25.3315,,0.7735,82.4175,,,,3.6947E+00,,1.0000E-12,,12.7455,12.7453,0.1171,264.197,71.669,71.425,,,,,,,,,,,,
CalCOFI,2101RL,043,,2101_043d,25-Jan-2021 03:35:24,24-Jan-2021 19:35:24,34.27140,-120.03082,081.8 046.9,081.8,046.9,44.000,44.322,,12.7180,,12.7173,,12.7177,33.5689,,33.5747,33.5666,,33.5686,33.5717,4.3079,,4.5085,,4.2662,,4.5291,,,187.638,196.6797,0.0000,185.822,209.1088,,0.0000,0.0694,,0.3205,0.3337, ,, , ,25.3410,,25.3393,,0.7731,82.4264,,,,3.6947E+00,,1.0000E-12,,12.7121,12.7114,0.1197,263.504,71.614,70.918,,,,,,,,,,,,
CalCOFI,2101RL,043,,2101_043d,25-Jan-2021 03:35:25,24-Jan-2021 19:35:25,34.27140,-120.03083,081.8 046.9,081.8,046.9,45.000,45.329,,12.6605,,12.6599,,12.6602,33.5727,,33.5785,33.5708,,33.5728,33.5757,4.2792,,4.4785,,4.2380,,4.4992,,,186.382,195.3649,0.0000,184.591,207.7121,,0.0000,0.0684,,0.3123,0.3245, ,, , ,25.3552,,25.3538,,0.7722,82.4447,,,,3.6947E+00,,1.0000E-12,,12.6545,12.6539,0.1224,262.177,71.052,70.368,,,,,,,,,,,,
CalCOFI,2101RL,043,,2101_043d,25-Jan-2021 03:35:28,24-Jan-2021 19:35:28,34.27140,-120.03084,081.8 046.9,081.8,046.9,46.000,46.337,,12.5881,,12.5931,,12.5906,33.5777,,33.5835,33.5746,,33.5766,33.5801,4.2609,,4.4594,,4.2072,,4.4665,,,185.585,194.5306,0.0000,183.246,206.8258,,0.0000,0.0613,,0.2541,0.2598, ,, , ,25.3731,,25.3698,,0.7703,82.4827,,,,3.6947E+00,,1.0000E-12,,12.5820,12.5870,0.1250,260.491,70.645,69.761,,,,,,,,,,,,
CalCOFI,2101RL,043,,2101_043d,25-Jan-2021 03:35:30,24-Jan-2021 19:35:30,34.27140,-120.03086,081.8 046.9,081.8,046.9,47.000,47.344,,12.4799,,12.4812,,12.4806,33.5714,,33.5772,33.5697,,33.5717,33.5745,4.3023,,4.5027,,4.2365,,4.4976,,,187.384,196.4138,0.0000,184.517,208.8263,,0.0000,0.0574,,0.2221,0.2249, ,, , ,25.3893,,25.3877,,0.7696,82.4978,,,,3.6947E+00,,1.0000E-12,,12.4737,12.4749,0.1276,258.972,71.168,70.081,,,,,,,,,,,,
CalCOFI,2101RL,043,,2101_043d,25-Jan-2021 03:35:31,24-Jan-2021 19:35:31,34.27140,-120.03086,081.8 046.9,081.8,046.9,48.000,48.352,,12.4566,,12.4563,,12.4565,33.5715,,33.5773,33.5688,,33.5708,33.5741,4.2967,,4.4968,,4.2460,,4.5077,,,187.138,196.1563,0.0000,184.929,208.5528,,0.0000,0.0564,,0.2139,0.2160, ,, , ,25.3939,,25.3918,,0.7693,82.5040,,,,3.6947E+00,,1.0000E-12,,12.4502,12.4499,0.1302,258.558,71.041,70.200,,,,,,,,,,,,
CalCOFI,2101RL,043,,2101_043d,25-Jan-2021 03:35:34,24-Jan-2021 19:35:34,34.27138,-120.03088,081.8 046.9,081.8,046.9,49.000,49.359,,12.4461,,12.4372,,12.4417,33.5708,,33.5766,33.5686,,33.5706,33.5736,4.2410,,4.4385,,4.2151,,4.4749,,,184.714,193.6188,0.0000,183.586,205.8573,,0.0000,0.0551,,0.2033,0.2045, ,, , ,25.3953,,25.3954,,0.7682,82.5251,,,,3.6947E+00,,1.0000E-12,,12.4396,12.4307,0.1328,258.444,70.105,69.663,,,,,,,,,,,,
CalCOFI,2101RL,043,,2101_043d,25-Jan-2021 03:35:36,24-Jan-2021 19:35:36,34.27138,-120.03090,081.8 046.9,081.8,046.9,50.000,50.367,,12.4240,,12.4220,,12.4230,33.5708,,33.5766,33.5685,,33.5705,33.5736,4.1596,,4.3533,,4.1381,,4.3931,,,181.166,189.9048,0.0000,180.229,201.9118,,0.0000,0.0539,,0.1935,0.1939, ,, , ,25.3996,,25.3982,,0.7692,82.5055,,,,3.6947E+00,,1.0000E-12,,12.4175,12.4154,0.1354,258.059,68.727,68.368,,,,,,,,,,,,
CalCOFI,2101RL,043,,2101_043d,25-Jan-2021 03:35:37,24-Jan-2021 19:35:37,34.27138,-120.03090,081.8 046.9,081.8,046.9,51.000,51.374,,12.3103,,12.3086,,12.3095,33.5761,,33.5819,33.5743,,33.5763,33.5791,4.1363,,4.3290,,4.1167,,4.3703,,,180.147,188.8381,0.0000,179.293,200.7787,,0.0000,0.0533,,0.1885,0.1887, ,, , ,25.4256,,25.4245,,0.7664,82.5634,,,,3.6947E+00,,1.0000E-12,,12.3036,12.3019,0.1380,255.604,68.183,67.856,51,,33.6137,, ,0.173,0.186,,,,,
CalCOFI,2101RL,043,,2101_043d,25-Jan-2021 03:35:39,24-Jan-2021 19:35:39,34.27138,-120.03091,081.8 046.9,081.8,046.9,52.000,52.382,,12.2499,,12.2497,,12.2498,33.5798,,33.5856,33.5777,,33.5797,33.5827,4.1436,,4.3366,,4.0983,,4.3508,,,180.460,189.1657,0.0000,178.491,201.1268,,0.0000,0.0535,,0.1902,0.1904, ,, , ,25.4401,,25.4384,,0.7650,82.5922,,,,3.6947E+00,,1.0000E-12,,12.2431,12.2429,0.1406,254.251,68.218,67.472,,,,,,,,,,,,
CalCOFI,2101RL,043,,2101_043d,25-Jan-2021 03:35:41,24-Jan-2021 19:35:41,34.27138,-120.03092,081.8 046.9,081.8,046.9,53.000,53.389,,12.2290,,12.2225,,12.2258,33.5818,,33.5876,33.5807,,33.5827,33.5852,4.1096,,4.3010,,4.0771,,4.3283,,,178.982,187.6186,0.0000,177.566,199.4832,,0.0000,0.0513,,0.1722,0.1712, ,, , ,25.4456,,25.4460,,0.7645,82.6023,,,,3.6947E+00,,1.0000E-12,,12.2221,12.2155,0.1432,253.749,67.631,67.086,,,,,,,,,,,,
CalCOFI,2101RL,043,,2101_043d,25-Jan-2021 03:35:44,24-Jan-2021 19:35:44,34.27138,-120.03094,081.8 046.9,081.8,046.9,54.000,54.396,,12.1838,,12.1894,,12.1866,33.5857,,33.5915,33.5823,,33.5843,33.5879,4.0495,,4.2381,,4.0289,,4.2771,,,176.362,184.8759,0.0000,175.463,196.5697,,0.0000,0.0504,,0.1648,0.1634, ,, , ,25.4573,,25.4535,,0.7626,82.6408,,,,3.6947E+00,,1.0000E-12,,12.1768,12.1824,0.1457,252.662,66.580,66.247,,,,,,,,,,,,
CalCOFI,2101RL,043,,2101_043d,25-Jan-2021 03:35:45,24-Jan-2021 19:35:45,34.27138,-120.03096,081.8 046.9,081.8,046.9,55.000,55.404,,12.1447,,12.1448,,12.1448,33.5864,,33.5922,33.5839,,33.5859,33.5891,4.0364,,4.2244,,4.0095,,4.2565,,,175.790,184.2772,0.0000,174.619,195.9336,,0.0000,0.0506,,0.1664,0.1651, ,, , ,25.4652,,25.4633,,0.7627,82.6403,,,,3.6947E+00,,1.0000E-12,,12.1375,12.1376,0.1482,251.926,66.310,65.868,,,,,,,,,,,,
CalCOFI,2101RL,043,,2101_043d,25-Jan-2021 03:35:47,24-Jan-2021 19:35:47,34.27138,-120.03098,081.8 046.9,081.8,046.9,56.000,56.411,,12.1189,,12.1192,,12.1191,33.5863,,33.5921,33.5839,,33.5859,33.5890,3.9746,,4.1597,,3.9662,,4.2105,,,173.097,181.4581,0.0000,172.730,192.9390,,0.0000,0.0518,,0.1763,0.1755, ,, , ,25.4701,,25.4682,,0.7620,82.6553,,,,3.6947E+00,,1.0000E-12,,12.1117,12.1120,0.1508,251.487,65.260,65.121,,,,,,,,,,,,